Tracking 29892 objects as of 21-Nov-2024
HD Live streaming from Space Station
objects crossing your sky now

SL-8 R/B

Track SL-8 R/B now!
10-day predictions


NORAD ID: 11586
Int'l Code: 1979-090B
Perigee: 953.6 km
Apogee: 993.9 km
Inclination: 82.9 °
Period: 104.4 minutes
Semi major axis: 7344 km
RCS: 5.15 m2 (large)
Launch date: October 16, 1979
Source: Commonwealth of Independent States (former USSR) (CIS)
Launch site: PLESETSK MISSILE AND SPACE COMPLEX (PKMTR)

Note: This is a ROCKET BODY
Your satellite tracking list
Your tracking list is empty




NASA's NSSDC Master Catalog

Two Line Element Set (TLE):
1 11586U 79090B   24325.82011287  .00000108  00000-0  89751-4 0  9994
2 11586  82.9463 209.5259 0027468 152.3904 207.8720 13.79230449269148
Source of the keplerian elements: AFSPC